Theta_e
295 292 291 292 292 290 290 290 293 294 294 295 296 295 296 297 298 298 298 297 298 296 296 296 295 293 293 294 295 294 294 293 295 292 294 294 294 294 295 295 294 295 294 293 294 297 294 292 292 291 291 292 292 292 290 290 291 296 298 299 297 296 294 293 293 293 293 291 292 292 292 293 293 292 291 291 291 291 291 290 290 290 290 290 290
292 292 291 289 289 289 289 290 294 294 294 295 295 296 297 297 298 298 297 297 298 298 298 297 296 297 295 295 291 291 294 294 294 293 294 294 294 294 295 294 294 295 295 292 294 294 293 292 293 292 292 292 291 290 290 295 292 294 297 296 294 296 294 294 294 291 291 289 289 288 291 292 292 291 290 290 290 290 290 289 289 288 288 288 289
292 292 289 288 288 289 288 290 293 295 295 295 296 296 296 296 298 298 298 298 298 298 298 298 296 296 296 292 295 291 291 292 292 293 295 295 294 294 294 293 294 293 293 294 294 292 294 293 294 292 292 295 292 291 290 291 291 295 296 297 294 290 293 291 291 290 289 289 288 289 285 285 290 289 290 289 289 289 289 288 288 287 286 287 287
292 292 291 288 287 288 288 290 292 294 294 294 294 295 296 297 297 298 298 298 298 298 300 297 297 294 293 294 293 293 294 292 290 292 292 292 294 292 291 293 293 294 292 293 293 293 293 294 293 292 292 293 292 292 290 291 290 291 292 296 297 295 292 294 291 289 291 291 288 286 285 285 282 285 285 287 288 287 287 286 286 285 285 285 285
291 292 292 288 287 288 289 290 291 293 294 295 295 296 297 297 298 298 298 298 298 299 299 297 297 294 294 294 294 294 294 292 292 292 291 292 292 291 294 291 292 293 292 293 294 293 291 292 293 293 293 292 292 292 292 293 292 292 293 296 296 296 293 289 290 288 291 289 290 286 285 285 282 284 284 285 287 286 286 285 285 284 284 284 283
291 292 292 291 288 287 288 289 291 292 294 295 296 297 297 297 297 297 297 297 298 298 298 298 298 296 295 295 294 292 292 292 294 295 294 294 295 291 291 291 292 292 291 292 293 293 292 292 292 293 292 292 292 292 292 289 290 290 292 297 295 293 296 290 292 290 289 289 288 288 288 286 285 286 282 281 285 285 285 284 283 282 282 282 282
288 289 290 289 288 287 288 290 291 292 294 294 294 296 296 297 297 297 298 297 297 298 297 299 296 296 297 297 297 296 295 295 293 293 296 294 292 293 293 290 290 293 291 291 292 292 292 291 292 293 293 292 293 291 290 292 292 292 291 291 295 293 292 294 294 292 289 289 288 287 288 288 291 287 281 282 281 282 283 282 281 281 281 281 281
288 289 290 289 287 288 289 290 291 292 292 293 294 295 296 297 297 297 298 298 297 298 297 299 297 296 296 296 296 295 296 296 295 294 292 293 292 292 292 291 290 290 292 291 291 292 292 291 291 291 292 291 292 291 292 290 289 289 291 289 289 292 294 296 293 290 294 291 288 288 289 290 286 285 286 286 283 280 279 281 281 280 280 280 280
287 289 290 290 289 288 289 289 291 291 292 294 294 295 296 295 297 296 297 297 297 297 298 297 298 297 297 296 295 296 295 292 293 292 293 293 292 289 290 291 291 290 290 291 291 291 293 292 290 290 291 291 294 291 289 289 290 291 290 289 290 290 292 292 292 292 291 289 288 286 289 287 286 287 285 284 282 279 279 279 278 280 279 279 280
287 288 289 289 290 289 288 289 290 291 291 292 292 293 293 293 296 296 296 297 296 296 298 297 297 297 296 295 295 295 294 291 291 292 292 291 292 291 291 290 291 290 290 289 290 290 291 291 291 291 291 291 293 290 288 288 288 289 290 291 289 290 288 290 293 292 292 290 291 289 287 285 286 285 283 284 284 282 281 279 278 277 276 277 279
288 289 288 289 289 288 288 289 290 290 289 291 292 293 293 294 295 295 296 296 296 296 297 297 297 297 296 296 295 295 293 292 292 291 290 289 292 292 291 292 290 292 290 290 289 289 289 291 291 291 291 292 293 289 289 290 289 289 288 287 288 289 288 288 288 288 289 289 289 291 291 291 289 286 286 284 282 281 280 278 277 277 276 276 277
288 288 289 288 288 289 289 289 289 289 289 291 291 292 293 294 294 295 294 294 295 296 296 297 297 296 296 296 295 295 294 294 294 293 292 292 293 293 291 289 290 289 288 289 289 288 290 290 290 290 291 290 291 290 289 289 288 287 287 288 288 286 287 289 287 287 287 288 288 290 291 291 290 289 289 288 286 284 283 279 276 276 276 276 278
287 288 287 288 288 289 289 289 289 289 291 291 292 292 293 293 293 294 295 294 295 295 296 296 296 296 296 296 295 295 294 295 294 294 293 293 293 293 291 291 290 289 290 290 290 289 290 290 289 290 290 290 290 288 287 287 287 287 287 287 287 287 288 288 288 288 288 289 289 287 287 287 287 286 289 287 286 285 282 278 277 277 275 275 277
287 287 287 287 288 288 289 289 290 290 290 291 291 292 293 294 293 294 295 294 294 295 295 296 296 297 296 296 296 295 295 295 295 295 294 294 294 294 293 293 292 292 292 291 292 290 290 291 291 290 289 289 289 288 287 286 286 287 287 287 286 287 286 287 288 287 286 286 286 286 285 286 283 286 288 287 286 283 281 279 277 276 276 276 277
285 286 287 288 289 288 289 290 290 290 290 291 291 292 292 293 293 294 294 293 294 294 295 295 296 296 296 296 296 295 295 295 295 295 295 294 294 294 293 293 293 293 292 293 290 290 290 289 289 289 288 287 288 287 288 286 286 287 287 286 287 285 286 286 286 285 286 284 284 286 286 283 283 285 287 288 287 286 283 280 279 276 276 276 276
286 286 287 287 288 287 288 288 290 290 290 290 291 291 292 293 293 294 294 294 294 294 295 296 296 296 296 296 296 296 296 295 295 295 294 294 294 294 294 293 293 293 292 290 289 290 289 289 289 288 287 287 287 287 287 286 286 286 286 286 286 285 285 285 285 285 285 283 283 282 283 282 282 284 286 287 287 286 284 282 282 281 278 275 275
287 286 287 288 286 286 288 288 289 289 290 291 292 292 293 293 293 293 294 293 293 294 295 295 296 295 296 296 296 295 295 295 295 295 295 294 294 294 294 293 292 291 291 290 289 288 289 289 288 288 287 287 286 287 287 286 286 286 286 285 285 283 284 284 283 284 282 282 281 281 283 281 280 282 285 286 286 285 284 284 284 284 284 279 275
286 286 286 287 288 288 288 288 289 290 291 291 292 292 293 293 294 294 294 293 294 294 294 295 295 295 295 295 295 295 295 295 295 295 294 293 293 293 292 291 292 292 291 290 289 288 288 289 288 288 287 286 286 286 285 284 284 284 284 284 284 282 283 282 282 282 281 281 281 280 280 280 280 281 284 285 286 286 284 284 284 283 285 283 279
286 286 287 288 288 289 289 289 289 289 290 291 292 292 292 292 293 294 294 295 295 295 295 295 295 296 296 296 295 295 295 295 295 294 293 293 293 293 292 293 291 290 290 289 288 288 288 288 287 287 286 285 284 284 284 284 284 284 283 283 281 282 283 282 281 281 281 281 280 280 279 279 279 280 281 282 284 285 284 283 282 282 283 283 282
286 287 287 288 288 289 289 289 290 290 290 290 291 291 292 293 292 293 293 293 293 293 294 294 294 295 295 294 294 295 295 295 294 294 293 293 294 293 292 291 292 291 290 290 289 288 287 287 287 286 285 285 284 284 284 284 283 284 284 283 282 282 282 282 281 281 281 280 280 280 279 279 278 278 279 280 281 283 283 282 281 282 281 282 283
287 287 287 288 288 289 289 288 289 288 288 289 290 291 292 292 293 293 293 293 293 294 294 295 295 295 294 294 294 294 294 294 293 293 293 293 293 293 293 293 291 290 290 289 288 288 287 287 286 286 286 285 284 284 283 283 283 283 283 283 281 282 282 282 281 280 279 279 280 280 279 278 278 278 279 279 279 280 281 281 280 280 281 281 281
287 287 287 288 288 288 288 286 286 286 289 289 290 290 291 292 293 293 293 293 293 294 294 295 295 295 294 295 295 295 295 293 293 293 293 293 293 293 293 291 291 290 289 289 288 288 287 287 286 286 285 285 284 284 283 283 283 283 282 283 282 281 282 281 280 280 279 279 279 279 278 278 278 278 278 278 279 279 280 280 279 280 280 280 280
288 287 288 287 288 288 288 288 288 288 290 290 290 291 292 292 292 293 293 294 294 294 294 294 294 294 294 295 295 294 293 293 293 293 293 293 293 293 292 291 291 290 289 289 288 287 287 286 286 285 285 284 284 284 283 283 283 283 283 282 282 282 282 282 280 281 279 279 279 279 278 277 278 278 278 278 278 278 279 280 280 279 280 280 279
287 287 287 288 288 287 286 287 288 288 289 289 290 291 291 292 293 292 293 294 294 294 293 293 293 293 294 293 294 294 293 293 293 294 293 293 293 292 290 291 290 289 288 288 288 287 286 286 286 285 284 285 284 284 283 283 283 283 283 283 282 282 282 282 282 281 280 279 279 279 278 277 278 278 277 277 277 277 278 279 278 278 279 279 278
288 290 290 290 289 290 290 289 288 289 289 289 290 291 291 292 292 292 293 294 294 293 293 292 292 292 292 292 293 292 293 292 293 293 293 292 292 291 290 290 289 289 289 288 287 286 286 285 285 285 285 284 284 284 283 283 283 283 283 283 282 282 282 282 282 281 281 279 279 280 279 278 278 278 277 277 276 276 277 277 277 276 277 278 278
288 289 289 290 291 290 289 289 290 289 289 290 290 290 291 292 292 292 293 292 293 292 293 292 292 292 292 291 292 291 291 292 292 292 292 292 292 291 290 289 290 290 289 288 288 286 286 285 285 285 285 284 284 283 283 283 283 282 282 282 282 282 282 282 281 281 280 280 280 280 279 278 278 279 278 277 276 276 276 276 276 276 276 277 276
288 288 288 287 287 289 290 289 289 289 289 289 289 290 290 291 291 291 292 292 292 291 292 292 292 292 292 291 291 291 292 292 292 292 292 291 290 290 290 290 289 290 289 287 286 286 285 285 285 285 284 284 283 283 283 283 282 282 282 282 281 281 281 281 281 280 280 279 279 279 279 278 278 279 279 277 276 276 276 276 276 275 276 276 275
286 286 286 287 288 289 289 289 288 289 289 288 289 290 290 290 290 290 289 290 291 290 291 290 290 290 290 291 291 291 291 292 291 290 290 290 289 289 289 289 287 288 288 287 286 286 285 285 285 285 284 284 283 283 282 282 282 282 282 281 281 281 281 280 280 279 279 279 279 279 279 278 278 279 279 278 277 276 276 276 275 275 275 275 275
288 288 288 288 288 289 289 289 289 287 288 288 288 288 288 289 289 289 289 290 289 289 289 289 289 289 290 290 290 290 289 289 289 288 288 289 289 288 288 287 287 287 287 287 287 286 285 284 284 284 283 283 283 283 283 282 282 281 281 281 280 280 280 280 279 279 278 278 278 278 278 278 279 280 281 280 279 279 276 276 275 275 275 275 274
289 289 289 288 288 288 288 288 287 287 287 287 288 288 288 289 289 288 289 289 288 289 289 289 289 290 290 290 290 289 289 289 288 288 289 289 288 288 287 287 287 287 287 286 286 285 285 285 284 283 283 283 283 283 284 286 285 283 281 281 281 280 280 279 279 278 277 277 277 277 278 280 281 281 281 281 281 281 280 278 276 275 275 275 274
288 288 288 288 287 287 287 286 287 287 287 287 288 288 288 287 288 288 289 289 288 288 288 289 289 290 290 289 288 288 288 288 288 288 288 287 287 286 286 286 286 285 285 285 285 284 284 284 284 284 283 283 283 283 285 287 287 287 283 281 280 280 279 279 279 278 278 277 277 276 276 279 280 281 281 281 281 281 281 280 279 279 278 276 275
287 287 287 287 287 287 286 286 287 286 286 286 287 288 286 288 288 288 289 287 287 288 288 288 289 288 288 288 287 287 286 287 286 287 286 286 285 285 285 285 285 284 284 284 284 285 285 284 284 284 283 283 283 285 287 287 288 288 286 282 280 280 279 279 279 278 278 277 276 276 276 277 278 278 278 279 281 281 281 281 280 280 280 280 279
287 287 288 288 288 288 287 286 286 286 286 286 287 287 288 289 288 288 286 286 287 287 288 288 287 287 287 286 286 286 286 286 286 286 285 285 285 285 285 285 285 285 284 284 284 284 284 284 284 284 283 283 283 286 287 287 288 288 288 285 281 280 280 279 278 278 278 277 277 276 275 276 277 280 279 278 278 279 281 281 280 280 280 280 279
287 287 287 288 288 287 287 286 286 286 286 286 285 287 289 288 287 285 286 287 287 287 287 287 287 287 286 286 286 286 286 286 285 285 284 284 285 285 286 286 285 284 284 284 284 284 284 284 284 284 283 283 283 285 287 287 287 288 288 287 282 280 280 279 278 278 278 277 277 276 276 276 276 278 277 277 277 277 277 277 277 276 276 278 279
288 287 287 287 287 286 285 285 285 285 285 283 284 284 286 285 285 286 286 286 286 287 286 287 287 286 286 286 286 286 286 286 285 285 284 285 285 286 285 285 285 285 284 284 284 284 284 284 283 283 283 283 283 285 286 287 287 288 288 288 283 281 279 279 278 278 278 278 277 277 277 276 276 277 277 277 276 276 276 275 274 274 274 275 275
288 287 287 287 286 285 285 286 286 284 284 283 285 283 284 286 284 286 285 286 286 286 287 286 286 286 286 286 286 286 286 286 285 284 284 285 285 285 285 284 284 284 284 284 284 284 284 283 283 283 283 283 283 286 286 287 287 288 288 286 283 281 279 278 278 278 278 277 277 277 276 276 276 275 278 279 278 276 275 274 273 273 274 274 273
288 287 287 288 285 284 285 284 285 285 285 284 283 284 285 284 284 284 284 285 285 286 286 286 286 286 285 285 285 286 285 285 285 284 284 285 285 284 284 284 283 283 283 283 283 283 283 283 283 283 282 283 282 285 286 286 287 288 287 285 283 281 279 278 277 277 277 276 276 276 276 275 275 275 279 280 280 277 274 273 272 272 272 271 271
287 286 284 284 283 283 282 283 284 284 283 283 283 284 283 284 284 284 284 284 284 286 286 285 284 284 284 283 284 285 285 284 284 284 285 285 285 285 284 284 284 283 283 283 283 283 282 282 282 282 282 282 282 283 286 286 287 287 286 284 283 281 279 277 276 276 276 276 276 277 276 275 274 275 280 281 280 276 272 272 271 271 270 270 270
285 284 284 284 284 283 283 282 282 284 285 283 284 284 284 284 284 283 284 285 285 285 285 285 284 284 284 285 285 285 286 285 285 285 285 285 285 285 284 283 283 283 283 282 281 281 281 281 281 282 282 281 282 282 285 286 286 287 286 284 283 280 278 276 275 274 274 274 275 276 277 276 275 276 281 281 281 276 272 272 271 271 270 269 270
281 280 281 281 282 282 283 283 283 283 283 283 283 282 283 284 284 282 283 284 284 285 285 285 285 285 285 285 285 285 285 285 285 285 284 284 284 283 282 282 281 281 281 280 280 280 280 280 280 280 281 281 281 281 282 285 286 286 287 285 283 279 277 275 274 274 273 273 274 275 276 278 278 279 281 281 281 278 273 272 272 271 270 269 271
281 282 285 282 282 281 282 281 280 281 281 281 281 282 282 282 281 282 282 282 283 283 283 283 283 283 283 283 283 284 284 284 284 284 284 283 283 282 282 281 281 280 280 280 280 279 279 280 280 279 279 280 280 280 281 284 285 286 287 286 282 280 278 276 275 274 274 273 273 274 275 278 279 280 281 281 281 280 276 272 272 270 271 272 272
281 281 281 281 281 281 281 281 281 281 280 281 281 283 282 281 281 282 282 283 282 282 282 282 282 282 282 282 282 282 283 284 282 282 282 282 281 281 281 280 279 279 279 279 278 278 278 278 278 278 278 279 279 280 280 282 284 285 286 287 283 280 279 277 275 274 274 273 273 273 274 277 279 280 281 281 281 280 278 272 272 275 276 276 271
280 281 281 280 281 281 280 280 280 280 280 281 282 281 280 281 279 278 280 281 280 281 281 280 280 281 280 280 280 280 281 281 281 280 280 281 279 278 278 278 278 277 277 277 277 277 276 276 275 275 275 276 277 278 281 280 283 285 285 286 286 283 282 278 276 274 274 273 274 274 274 277 279 280 280 281 281 281 278 273 275 276 276 276 272
280 280 279 279 280 280 280 278 278 278 278 279 280 280 279 278 276 276 277 278 279 278 278 278 277 277 277 277 277 278 278 278 278 279 278 278 277 276 276 276 276 276 275 275 275 274 274 274 274 273 273 273 274 276 279 280 281 283 284 286 286 285 282 278 277 275 275 274 274 273 274 277 279 280 280 281 281 281 277 276 276 277 276 275 269
279 278 279 279 280 280 278 276 275 274 274 273 275 276 275 273 273 274 274 275 276 276 276 275 275 274 274 273 273 274 273 273 273 276 276 275 274 273 273 272 273 273 274 274 275 274 274 274 273 273 273 274 275 276 277 279 281 281 283 284 285 286 284 282 277 276 275 274 275 276 277 278 279 280 280 280 280 280 280 276 277 276 274 271 267
277 276 277 278 278 277 275 273 272 272 271 271 271 271 270 271 272 272 273 274 274 273 273 272 271 271 271 269 271 272 271 271 272 273 275 275 275 274 274 272 272 272 273 273 273 274 274 275 275 275 274 274 274 275 275 276 278 280 281 282 284 285 283 281 278 276 276 277 277 277 277 278 278 278 278 277 277 277 279 276 276 274 272 268 267
274 274 275 276 275 274 272 271 270 270 270 269 269 269 269 269 270 271 271 271 271 271 271 271 270 271 270 271 272 272 272 273 272 272 272 273 274 274 273 273 272 273 274 275 275 275 274 274 273 274 273 273 272 273 274 275 276 277 278 279 281 282 282 280 277 275 276 275 276 276 276 277 277 277 277 277 277 277 276 273 273 273 270 268 267
272 272 272 272 271 271 270 269 268 268 268 268 267 267 267 268 269 269 270 270 270 270 269 269 269 269 269 269 269 271 272 271 271 271 271 272 272 273 273 274 274 275 274 274 274 274 274 274 273 273 272 272 272 272 273 274 275 276 276 278 278 279 278 277 275 273 274 274 274 275 275 275 275 275 276 275 275 274 272 272 272 271 268 267 266
271 270 269 269 269 268 268 267 267 267 267 266 266 266 266 267 267 268 269 269 270 268 268 268 268 269 269 269 269 269 269 269 270 270 270 271 270 271 272 272 273 274 273 273 273 273 274 274 274 273 272 271 271 271 272 276 275 277 276 276 277 276 276 276 274 275 272 272 272 273 272 272 272 272 272 273 272 270 270 271 269 267 265 265 265
270 268 267 266 266 266 266 266 266 266 265 265 265 265 265 266 267 267 268 268 269 269 268 268 268 268 268 268 268 268 268 269 268 268 268 269 273 274 274 271 269 274 275 276 277 272 273 273 273 273 274 272 272 273 275 276 276 277 278 279 279 279 278 276 276 277 273 271 271 270 271 270 270 271 270 271 270 269 267 265 264 265 264 263 263
269 267 267 266 266 265 265 264 265 264 264 263 263 264 263 264 266 266 267 267 268 268 268 268 267 267 268 267 267 267 267 267 268 267 267 267 266 270 274 274 273 274 274 275 276 276 276 275 273 271 273 276 275 275 276 276 277 278 278 279 279 280 280 278 278 275 271 269 269 269 269 270 269 270 269 270 269 267 265 264 263 263 263 263 262
Wind_Speed
7 5 5 6 7 7 6 6 6 6 6 7 8 9 9 11 10 11 8 8 9 8 7 8 6 4 2 6 6 6 6 4 4 4 5 5 5 5 5 6 5 4 4 4 5 4 4 4 4 3 3 3 4 4 4 4 3 5 7 6 11 8 4 3 4 5 10 8 7 9 10 10 11 11 12 11 10 8 8 9 8 9 9 10 9
7 8 5 5 5 4 4 5 5 8 7 8 11 12 11 9 11 11 8 9 10 10 10 8 7 8 7 7 4 5 5 6 4 5 6 5 5 5 5 5 5 5 4 4 4 5 5 5 5 5 4 4 3 3 3 3 4 5 7 6 2 7 6 5 5 2 5 5 6 4 7 7 8 11 12 11 10 9 8 9 8 9 10 8 8
8 8 5 4 4 3 4 5 6 8 9 11 10 9 8 9 10 9 10 10 10 9 9 9 5 5 5 5 7 3 0 1 3 4 5 6 5 5 5 5 5 4 4 4 5 4 6 6 6 5 5 5 5 4 4 4 5 7 7 9 6 1 3 2 1 0 5 4 3 5 1 4 6 7 7 11 10 9 9 10 9 9 11 9 7
11 10 8 4 3 3 3 5 6 6 5 5 6 9 8 9 8 9 10 9 10 10 10 6 6 5 4 5 4 4 4 3 2 2 3 2 5 4 3 4 5 5 4 4 4 5 6 6 5 5 6 5 6 6 5 5 5 4 4 5 8 7 4 5 0 1 4 7 2 2 2 4 3 5 4 7 7 9 11 10 8 9 9 9 9
11 11 8 4 3 4 6 5 3 6 6 8 9 10 10 13 12 12 11 11 9 9 9 8 8 6 6 6 5 5 5 4 3 2 3 3 2 3 6 4 4 5 4 4 5 6 5 5 6 6 6 5 4 6 6 7 7 6 6 7 8 9 7 3 2 1 5 1 6 5 2 2 1 3 2 6 8 9 11 10 9 10 10 10 9
9 10 9 6 4 4 3 4 5 7 8 9 10 10 8 9 8 8 7 8 10 10 10 10 10 10 8 8 6 4 5 5 9 10 8 7 8 4 3 4 4 4 4 4 5 4 5 5 5 6 5 5 5 6 5 4 5 5 7 8 7 4 8 6 4 0 2 1 1 1 3 3 8 5 2 1 3 6 6 8 9 9 8 9 8
5 6 7 7 6 4 4 6 7 8 9 4 5 7 7 7 8 10 10 9 8 9 10 9 9 9 12 12 10 10 10 8 4 4 8 6 4 5 6 4 4 6 4 4 4 4 5 5 5 6 6 6 4 5 5 7 7 7 4 5 7 4 4 7 7 6 2 1 1 0 1 1 7 8 2 5 2 4 5 6 8 8 8 9 10
5 7 7 6 5 5 7 7 7 8 4 4 5 5 8 10 10 11 9 9 9 9 10 10 11 10 9 8 8 9 10 10 8 5 4 5 6 5 4 5 4 4 5 5 4 4 5 5 5 5 5 5 5 6 7 5 4 2 4 4 3 5 6 8 7 6 10 4 1 3 4 6 3 2 4 8 6 6 1 2 3 6 8 8 8
5 7 6 7 6 5 5 5 5 4 5 7 8 7 6 5 6 5 7 8 8 9 11 10 10 11 11 9 8 7 7 4 5 3 5 5 6 4 5 5 5 4 4 5 5 5 4 5 5 5 5 5 5 5 4 4 6 6 5 5 6 6 6 4 6 8 6 7 5 3 5 4 4 4 4 4 6 5 1 1 1 1 4 8 8
4 5 6 7 7 5 4 4 3 5 4 4 4 4 5 5 6 7 8 7 7 9 9 10 9 9 9 9 10 8 5 4 5 6 6 5 7 6 5 5 6 5 5 4 4 4 4 4 5 6 6 6 5 6 4 4 4 5 6 7 6 6 4 5 7 6 7 5 5 7 5 3 3 3 2 5 6 3 8 6 4 2 3 4 5
6 6 5 6 6 5 3 4 3 2 3 4 4 5 5 6 7 8 8 6 6 9 10 11 9 9 10 10 11 9 7 7 6 5 5 4 7 7 7 7 6 6 6 5 4 4 4 4 5 6 5 5 5 5 7 7 6 6 5 4 5 6 6 5 3 4 6 6 6 8 9 10 9 7 8 5 6 5 7 5 3 2 3 4 4
6 6 7 5 5 3 1 3 3 4 3 4 5 5 6 6 6 7 6 7 7 8 9 10 10 10 8 9 10 10 10 9 10 10 10 10 9 9 7 5 6 5 4 4 5 4 5 5 5 5 6 5 6 6 5 5 5 4 4 6 5 4 4 6 5 6 7 7 7 7 8 8 7 6 9 9 9 8 10 10 7 4 3 2 1
6 6 5 5 4 4 4 4 3 4 6 5 6 6 6 7 8 10 10 8 9 9 11 11 10 10 10 10 9 8 9 10 10 10 9 9 9 8 7 8 6 6 7 7 7 7 6 6 7 7 6 6 5 5 4 4 5 5 5 5 6 6 7 7 7 8 9 9 9 7 6 7 7 3 7 7 5 8 12 11 2 2 4 3 1
7 6 6 6 5 5 5 5 5 5 5 7 6 6 6 7 8 10 11 9 8 8 10 10 11 11 10 10 10 9 10 10 9 10 9 9 8 9 10 9 9 10 8 10 8 7 6 7 6 6 5 5 5 5 5 5 5 6 5 6 7 7 6 7 8 7 7 7 6 8 7 7 5 5 7 8 10 10 9 13 9 4 3 3 0
4 5 6 6 6 5 5 5 5 5 5 6 7 7 7 7 8 10 9 8 9 10 9 11 11 10 9 10 9 8 10 9 10 9 9 9 8 8 8 7 8 8 9 8 5 7 7 5 5 5 5 5 5 5 5 5 5 5 6 7 6 7 8 8 7 8 8 7 6 6 6 5 5 6 8 8 9 11 13 13 14 12 3 1 0
5 5 6 5 5 5 5 5 6 5 5 5 6 7 8 9 9 10 12 11 11 11 11 12 12 10 10 11 12 10 9 8 7 6 7 8 9 9 9 9 9 7 6 4 6 6 7 7 6 6 6 6 7 7 8 7 7 8 7 7 8 5 7 7 6 6 5 5 5 3 5 6 5 7 7 9 9 9 11 11 12 13 14 6 3
6 5 5 6 3 4 5 5 5 5 5 7 7 8 10 10 9 11 10 7 9 11 12 10 10 9 11 11 10 9 10 11 12 11 10 8 7 8 8 8 6 5 6 5 6 6 7 8 8 8 8 7 8 8 8 8 7 6 5 5 4 2 3 4 3 5 3 4 4 6 6 6 6 5 6 7 8 8 9 11 12 13 10 10 8
7 8 7 8 8 6 5 5 6 7 7 7 8 7 7 8 10 11 10 11 11 11 10 10 11 11 11 12 11 11 11 11 10 10 8 7 7 7 5 6 8 8 7 6 6 7 7 8 8 8 7 7 7 4 4 3 3 3 2 2 1 3 4 3 3 4 5 5 4 4 4 6 5 6 8 8 9 10 10 10 9 6 8 11 9
6 6 6 6 5 6 5 6 5 6 7 7 7 6 6 7 7 8 11 13 12 10 9 9 9 9 9 10 11 10 9 9 8 6 6 8 9 8 8 9 6 7 8 8 8 8 8 8 7 6 5 5 4 4 4 5 5 6 4 5 3 5 5 6 5 6 6 6 7 7 5 5 5 6 6 6 6 7 9 8 7 5 6 5 11
6 6 6 6 7 6 6 6 6 6 6 6 6 5 7 7 7 9 8 6 6 7 7 9 9 9 8 6 7 8 9 9 9 8 8 10 10 9 9 8 11 8 8 9 8 8 8 8 7 7 7 6 6 5 6 6 6 6 6 6 5 6 6 7 6 5 6 6 7 7 6 6 4 4 5 5 6 5 6 7 7 6 5 5 8
8 6 6 6 7 7 6 5 5 5 5 4 5 8 8 6 9 9 10 9 9 10 9 11 9 11 9 10 10 10 11 10 8 8 9 10 9 9 10 11 6 8 8 8 8 9 9 9 8 8 8 8 8 7 7 7 7 7 7 7 6 7 7 6 6 6 4 6 7 7 6 4 4 6 6 6 6 6 6 6 5 6 6 6 7
7 9 7 7 7 7 5 4 4 4 6 7 7 6 8 10 10 8 8 9 10 10 11 11 10 9 11 11 12 10 10 8 10 10 11 11 10 11 11 6 8 8 8 9 9 8 7 8 8 8 8 8 8 9 9 8 9 9 8 6 8 9 8 7 6 8 7 6 6 7 7 6 5 6 6 7 7 7 7 7 7 7 7 7 4
11 9 9 8 8 9 7 5 6 7 8 7 7 9 10 9 8 9 10 12 10 10 7 7 8 9 11 11 11 10 9 11 12 11 11 12 11 10 6 9 8 7 7 8 9 9 8 8 8 8 9 9 10 10 9 10 10 11 11 9 9 10 10 10 10 10 10 8 8 8 8 7 5 6 6 6 5 7 6 8 8 6 7 6 5
8 8 8 10 9 8 6 6 7 7 7 9 9 8 8 8 9 8 12 13 9 8 8 8 8 9 9 8 9 9 10 10 11 10 12 11 9 7 6 8 7 6 8 8 8 9 8 9 10 9 10 10 10 10 10 10 12 12 11 12 10 11 11 11 11 11 10 10 11 10 9 9 7 7 7 6 5 5 7 7 7 5 5 6 5
11 11 12 11 10 10 10 7 7 6 5 7 7 8 9 10 9 11 12 10 9 8 9 9 9 11 10 10 10 9 10 11 11 9 11 9 8 8 7 8 7 8 8 8 8 7 9 9 10 11 11 11 11 9 9 10 9 8 9 9 10 10 10 10 10 10 9 11 10 12 10 10 9 9 7 7 7 8 6 6 7 6 6 5 4
10 11 11 12 11 10 11 10 9 8 7 6 7 7 8 9 11 10 9 8 10 8 9 9 10 11 11 11 10 9 9 9 10 9 9 9 9 8 7 7 9 10 9 9 9 7 8 10 9 10 9 9 8 9 10 10 10 8 8 8 8 9 9 9 9 8 9 9 10 10 10 11 11 12 11 9 8 9 7 7 7 7 6 6 6
10 9 10 9 11 14 12 11 10 9 7 6 6 7 7 7 8 7 8 7 6 7 8 9 9 10 9 10 10 11 10 11 10 10 8 7 8 8 8 9 8 9 8 7 6 7 7 8 9 8 9 10 9 9 10 10 10 9 9 9 9 9 9 9 8 8 8 8 9 8 9 11 12 11 11 12 11 9 8 9 8 8 7 8 8
8 9 10 12 13 13 13 13 11 10 8 7 7 8 7 7 8 5 5 5 5 7 7 6 5 6 6 6 7 7 8 8 7 7 7 7 7 7 8 7 7 8 9 9 10 10 10 9 10 10 10 9 9 10 10 10 9 10 9 10 10 9 9 8 7 7 7 8 8 8 8 10 11 10 9 9 10 10 7 8 7 7 8 8 8
11 12 11 11 12 12 12 12 11 8 9 9 7 7 7 7 6 6 6 8 7 6 6 7 7 9 10 9 8 7 7 7 7 7 8 9 9 9 8 9 9 9 9 10 10 10 10 11 9 9 9 9 9 10 10 10 10 10 10 10 10 9 9 9 8 7 7 8 8 8 8 8 8 8 8 8 9 8 9 10 7 8 8 8 7
14 13 11 10 12 12 11 10 10 10 10 8 7 7 7 8 7 6 8 8 7 9 8 9 10 12 10 10 10 8 9 9 9 10 11 10 9 9 9 9 10 9 9 9 8 9 10 11 10 10 9 9 10 9 12 15 13 11 12 10 9 10 10 10 10 9 9 9 9 8 8 11 12 12 12 13 14 12 10 7 10 11 11 9 9
13 11 12 11 11 11 10 10 11 10 10 9 8 8 6 6 6 7 8 6 7 8 9 9 12 11 10 8 8 8 7 9 10 8 7 7 8 6 7 8 8 7 8 7 7 9 9 8 10 10 11 10 10 10 15 17 20 19 12 11 11 11 10 11 11 11 11 11 9 8 7 9 10 11 10 14 15 15 14 12 12 12 11 13 13
13 12 11 11 12 12 10 10 10 9 8 8 8 7 5 7 7 8 7 6 7 8 9 10 11 6 6 7 7 5 6 8 5 7 6 5 5 6 7 8 7 8 7 5 8 10 9 9 9 9 11 10 10 10 16 18 19 19 16 12 10 10 10 11 11 11 10 10 10 8 8 7 8 10 9 10 13 15 15 13 15 16 15 13 9
12 13 13 13 12 11 10 10 8 8 8 9 8 6 7 7 7 6 4 7 8 9 9 9 7 6 6 6 6 7 8 8 8 7 6 6 7 8 9 9 11 9 6 9 11 9 10 9 10 11 11 10 10 11 17 18 18 19 19 14 10 10 10 11 11 12 11 10 9 9 9 8 7 14 11 9 9 10 13 15 15 15 13 13 11
12 12 13 13 11 10 9 8 9 9 8 7 5 7 8 6 6 4 7 7 8 8 9 9 7 8 7 7 8 9 9 9 7 7 7 8 9 12 10 9 7 6 9 10 9 10 9 10 10 10 10 9 10 10 17 17 18 19 19 17 11 11 11 11 12 12 11 11 12 11 11 10 9 10 9 10 10 9 9 9 8 7 6 8 10
12 12 11 11 11 9 8 9 8 8 7 5 5 5 6 5 4 5 7 8 8 8 9 9 9 9 8 9 9 9 10 8 8 8 8 9 11 10 9 8 8 9 9 10 10 10 10 9 9 9 9 9 10 13 16 18 18 19 19 16 11 9 10 10 10 11 11 12 12 11 12 11 11 11 10 12 11 11 8 7 6 6 5 5 4
11 9 11 9 8 8 7 9 6 5 6 4 6 3 4 6 4 6 6 7 8 9 10 9 10 10 10 9 10 10 9 7 7 7 8 10 10 10 9 6 6 6 6 6 7 7 9 8 8 9 9 11 9 12 15 17 18 18 19 12 10 11 10 10 10 10 10 10 11 11 10 13 11 11 13 18 13 8 8 8 8 7 7 5 4
10 7 10 9 6 5 7 5 7 7 6 5 5 4 4 4 4 5 4 5 6 8 10 9 9 7 6 6 7 7 7 7 6 7 9 10 8 7 6 5 6 7 7 8 9 8 7 8 9 9 10 10 8 10 15 17 18 20 15 10 10 9 10 10 10 9 10 10 10 11 12 11 9 8 16 20 19 14 8 9 9 8 6 6 6
10 7 5 7 6 6 6 4 7 8 5 4 4 3 4 4 4 3 4 5 6 10 6 3 3 1 2 3 4 5 6 6 6 9 10 8 6 5 6 6 8 8 9 9 7 6 7 7 8 10 10 10 9 10 15 17 19 20 17 11 10 10 10 9 8 7 7 8 9 11 8 11 8 10 19 21 21 14 8 8 9 9 9 8 7
6 5 7 8 7 7 8 4 3 7 7 4 2 2 3 4 3 3 3 5 5 3 3 2 2 2 4 5 6 6 6 7 8 9 8 7 7 7 5 5 7 6 7 4 5 6 6 6 7 8 9 11 9 8 14 17 19 20 16 10 9 8 9 8 8 7 6 8 6 11 12 11 9 14 22 21 22 16 13 10 11 8 9 9 8
3 3 3 5 6 8 8 5 5 6 5 4 1 1 4 4 4 3 3 4 3 2 3 4 4 4 4 5 5 6 6 7 8 6 5 6 4 4 5 6 6 6 6 6 6 6 7 7 6 7 8 8 9 7 9 17 18 20 21 12 9 9 10 9 9 10 7 5 5 7 13 19 19 22 22 23 23 21 16 14 15 14 9 9 9
5 4 3 3 4 4 6 5 4 4 5 4 2 1 3 2 1 1 1 2 3 3 2 2 2 2 3 3 3 4 6 6 5 5 4 4 4 5 5 5 6 5 5 6 6 6 7 7 5 6 6 7 7 7 7 15 18 20 22 19 10 11 10 10 10 11 10 9 7 7 7 18 22 24 25 25 24 24 19 13 17 16 15 13 13
1 2 4 4 3 3 3 4 6 7 6 4 3 2 2 1 3 4 5 5 4 3 1 1 1 1 1 1 2 3 3 4 3 3 3 4 3 4 4 5 5 5 6 7 5 6 6 6 5 5 6 6 6 9 7 12 18 20 20 23 13 11 10 9 10 10 11 11 6 7 10 18 24 24 25 26 27 24 24 12 14 17 16 20 12
3 4 4 2 2 3 5 6 6 7 6 5 4 4 3 3 7 7 7 5 3 3 3 2 2 2 3 2 2 2 3 2 2 3 3 3 2 3 3 3 5 5 5 6 6 5 5 6 5 5 4 4 5 6 10 8 13 18 20 21 23 15 14 11 10 12 14 14 11 10 9 19 25 26 26 27 25 26 21 13 21 20 19 21 15
1 1 2 1 2 3 5 7 7 8 8 8 5 5 5 6 7 7 7 6 5 3 3 3 4 4 3 3 3 2 1 1 1 1 1 2 2 3 3 4 4 5 5 5 5 4 4 5 6 5 4 3 3 4 5 9 9 16 19 21 23 18 17 12 11 10 10 12 12 13 13 22 24 25 27 26 26 24 14 21 24 24 23 20 11
2 3 3 2 3 5 6 8 8 9 9 8 8 6 7 8 7 7 7 7 5 4 5 4 5 4 3 3 3 3 3 3 2 0 1 1 2 1 3 2 3 3 4 5 5 4 5 6 5 6 5 4 4 4 4 6 10 12 17 20 22 21 19 18 12 8 9 10 14 21 21 23 25 26 27 27 23 24 23 23 26 26 22 10 10
3 4 5 3 4 6 8 8 8 9 8 8 8 8 8 6 7 7 7 7 5 4 5 4 4 4 4 3 4 4 4 2 2 1 0 1 2 2 3 2 3 3 4 5 5 5 5 5 5 4 4 4 4 4 4 3 4 7 9 16 20 21 18 18 15 11 12 16 20 21 24 24 24 21 16 13 10 12 19 24 26 23 13 10 12
5 5 3 3 4 6 7 7 8 8 7 7 8 7 7 6 7 7 7 6 4 4 4 4 5 5 4 5 5 4 4 4 4 3 3 2 1 0 1 2 2 4 4 4 4 4 4 4 5 4 3 3 3 3 4 3 4 5 8 9 10 11 12 12 8 6 8 10 15 16 15 19 14 18 16 12 10 11 9 15 13 13 11 11 11
5 5 5 6 8 8 7 7 7 7 6 7 7 7 8 7 7 7 7 5 5 5 5 5 5 4 4 4 4 5 5 4 5 5 5 5 5 4 3 2 2 1 2 3 3 3 4 4 4 3 2 2 3 4 4 6 7 7 6 6 7 6 5 7 7 7 8 10 10 10 13 11 10 10 10 8 7 6 9 11 11 10 10 10 11
7 7 7 7 6 7 7 7 7 6 6 6 6 7 7 8 8 7 7 5 5 4 4 4 4 5 5 4 4 5 5 5 4 5 5 4 3 3 3 2 3 2 3 2 2 3 1 1 2 3 4 4 4 5 7 6 6 8 7 7 7 6 5 6 9 12 8 6 6 7 8 8 9 9 9 8 7 6 8 9 9 7 9 9 10
6 6 7 8 8 7 7 7 6 6 6 6 6 7 7 7 7 7 7 6 5 4 5 5 5 5 5 5 5 5 5 5 5 4 3 4 6 8 5 4 2 5 6 6 5 1 1 1 1 3 3 6 7 5 5 10 11 12 13 14 12 11 11 8 12 20 13 9 10 10 10 10 10 9 10 9 7 7 8 6 6 7 9 9 10
5 6 7 8 7 7 7 8 6 6 6 7 7 8 7 8 8 8 7 6 5 4 5 5 6 6 6 5 5 5 5 4 4 4 4 3 3 5 7 8 6 6 6 6 5 5 3 2 3 3 4 4 6 6 7 10 13 15 15 15 16 17 16 16 19 13 9 8 8 8 8 9 9 9 9 10 7 7 8 8 7 7 7 9 9
Wind_Direction
282 283 261 243 238 228 216 195 195 185 185 179 182 189 183 180 172 186 180 164 160 157 163 160 160 165 160 189 191 181 181 178 180 186 185 186 173 173 174 179 178 179 177 164 169 165 156 145 136 147 155 141 146 158 155 141 133 128 125 118 124 118 113 138 132 104 102 75 64 63 57 49 50 44 43 36 33 29 27 30 23 26 22 25 18
295 296 286 281 262 248 209 189 175 181 197 181 190 191 188 178 182 182 167 172 177 175 170 175 180 182 163 179 160 156 158 168 191 210 200 189 181 179 181 176 175 180 181 184 168 163 157 161 159 163 161 147 133 132 140 132 132 133 135 100 71 133 146 181 185 87 32 125 117 76 61 56 51 46 40 33 30 27 26 31 28 29 25 18 17
295 272 283 281 278 263 204 197 200 202 191 195 195 181 179 181 189 176 177 176 181 176 168 180 178 167 160 160 159 141 218 173 170 180 175 183 192 188 179 174 170 179 182 185 172 179 174 168 177 162 165 150 131 137 136 145 162 160 165 143 137 25 131 192 207 155 140 136 112 99 19 47 5 30 32 33 26 26 26 30 24 28 22 20 16
293 298 300 301 280 248 220 212 206 198 184 185 177 184 185 189 186 179 182 182 176 181 179 169 150 123 89 122 110 116 169 136 73 87 139 148 202 202 194 176 174 179 181 187 191 184 177 182 166 166 173 174 160 156 164 166 165 178 176 164 146 141 166 211 207 185 148 141 69 95 171 120 55 5 24 14 14 29 30 28 25 23 20 22 24
286 297 298 305 289 238 217 216 184 196 197 191 186 187 188 192 188 182 178 182 181 175 167 147 123 102 96 75 84 78 59 90 113 185 191 197 190 194 210 185 180 181 180 190 189 193 188 179 173 177 171 179 165 162 173 182 185 182 175 169 178 156 185 194 200 172 181 113 147 107 66 41 173 194 135 27 12 22 20 23 25 22 23 24 26
258 270 280 296 277 271 234 209 195 206 208 203 194 194 187 187 179 178 174 179 178 176 164 156 161 153 145 142 154 173 168 165 196 198 191 199 205 187 189 190 183 184 184 187 200 186 190 187 179 170 179 173 182 179 179 156 175 178 195 183 187 218 161 158 174 17 127 108 158 164 164 170 164 191 84 95 20 51 14 22 26 21 24 27 27
284 276 281 283 276 248 244 216 209 208 220 184 184 192 190 184 182 179 177 180 177 171 167 161 159 167 174 180 181 184 190 215 202 181 187 198 170 187 196 191 191 183 192 191 195 199 191 185 182 182 179 179 175 156 175 193 189 192 172 185 200 168 140 171 179 180 90 61 54 136 161 123 145 132 164 114 72 346 20 16 17 17 23 30 28
294 290 285 272 265 227 232 224 213 219 182 165 188 186 189 188 181 184 180 177 178 169 173 174 170 174 178 188 187 192 196 204 186 185 161 155 177 196 189 206 200 196 190 195 196 196 189 190 184 178 177 184 173 186 191 195 181 171 175 184 168 184 184 180 183 177 176 195 57 68 78 97 74 92 130 154 141 132 11 5 33 25 30 32 27
287 289 283 283 276 253 247 241 231 202 181 187 191 195 192 183 181 174 180 178 179 175 175 184 179 178 182 182 191 209 202 178 143 139 160 166 181 195 197 208 209 209 202 197 197 195 193 188 182 182 182 185 188 187 190 178 188 178 171 174 187 198 201 190 158 190 193 170 123 69 87 79 66 71 95 93 136 124 176 216 189 277 47 29 15
282 256 273 277 274 272 242 243 219 211 196 180 168 155 167 163 175 181 192 185 176 177 181 184 184 174 181 188 196 196 176 139 149 164 174 175 191 198 206 206 210 212 213 205 199 197 194 184 184 191 194 188 185 185 178 183 195 194 193 189 182 182 192 179 191 182 191 170 167 154 134 118 80 91 83 108 69 85 156 177 197 140 72 6 2
307 310 279 268 273 275 275 213 218 200 179 168 167 170 167 174 181 187 196 178 174 183 181 188 189 184 190 191 195 191 181 165 160 177 171 176 200 204 203 212 205 214 203 208 199 192 195 192 190 199 194 190 183 172 189 192 195 196 191 176 176 178 176 172 154 171 172 173 174 171 171 174 172 175 182 185 143 130 99 113 90 71 122 114 10
302 306 306 311 320 307 321 240 207 194 166 173 178 168 172 179 176 189 189 186 184 186 189 194 191 194 197 190 195 196 178 180 189 192 190 194 196 201 201 197 219 220 213 215 210 198 195 198 199 194 193 187 195 191 189 190 187 182 177 185 186 178 163 165 166 163 177 181 188 190 188 191 182 176 177 167 158 158 143 145 142 141 75 73 201
297 292 294 297 278 268 259 246 223 194 195 191 187 182 181 181 182 186 200 191 190 186 193 195 193 199 195 195 201 190 188 192 196 199 191 195 194 197 184 207 202 210 218 212 216 196 193 193 196 196 198 197 188 182 190 180 179 183 187 187 181 181 185 178 176 187 178 179 193 199 186 182 191 181 148 145 105 123 130 125 133 112 138 160 246
284 284 281 273 262 250 241 236 220 213 204 197 191 186 187 188 190 194 205 191 190 191 196 196 202 202 197 199 198 188 197 195 200 200 196 199 192 197 196 199 198 209 201 214 200 189 197 203 194 200 196 185 179 184 182 183 178 187 187 188 193 194 175 186 191 185 189 196 170 173 190 187 183 170 150 140 143 133 141 142 139 74 84 121 359
258 266 260 253 247 235 236 234 234 225 214 202 194 192 183 194 193 201 204 196 191 197 194 201 205 203 202 204 200 196 200 197 204 203 195 195 197 198 203 199 204 210 206 209 173 189 196 191 198 193 189 183 177 179 182 180 185 187 194 198 193 183 185 181 188 178 185 184 185 185 171 166 165 173 157 163 160 160 150 152 140 129 97 82 104
280 274 274 253 239 241 239 240 237 233 226 220 209 194 192 200 197 204 205 197 195 195 200 201 204 201 202 202 205 200 203 201 208 205 206 198 197 197 203 201 209 206 205 173 191 182 191 195 194 197 186 185 187 185 182 185 186 188 196 195 199 187 180 187 188 183 187 177 171 143 147 177 172 174 173 167 173 163 154 159 156 150 144 172 188
294 286 280 285 257 230 226 232 237 234 233 222 220 211 204 197 197 205 210 201 200 205 204 202 204 199 207 208 205 201 200 200 205 205 204 198 195 203 203 206 199 198 194 187 185 190 192 194 195 194 192 192 192 194 189 189 186 192 197 199 210 177 177 185 155 176 166 160 158 176 179 170 181 177 174 173 168 164 170 172 172 165 163 140 167
290 289 288 285 287 272 244 228 224 220 218 225 228 222 223 212 204 204 203 203 208 203 203 201 201 205 209 210 209 206 205 210 209 208 198 187 203 203 198 189 203 199 190 190 185 191 198 196 198 199 197 193 198 191 190 173 166 191 192 211 197 158 166 133 164 159 165 164 165 171 170 177 182 179 184 179 176 173 175 184 188 183 159 157 160
314 313 310 302 284 280 271 250 234 226 222 222 220 214 224 227 221 212 211 212 207 202 203 208 206 208 209 208 205 206 210 213 214 205 181 195 204 203 198 208 195 189 189 186 193 195 196 202 199 202 188 193 181 183 172 176 178 188 185 195 170 171 174 176 179 168 174 168 172 181 188 188 180 187 181 184 184 176 182 180 187 167 187 153 156
294 292 288 282 278 267 259 255 251 237 234 230 224 214 218 222 221 222 226 218 212 208 203 210 206 209 211 202 205 206 210 210 206 194 194 202 207 200 204 201 209 191 196 195 192 194 194 196 197 191 187 185 186 185 177 182 182 195 185 187 189 179 188 187 182 182 171 179 175 182 188 183 178 174 179 182 184 187 172 178 178 175 168 160 152
287 276 280 280 281 279 269 254 255 256 246 237 221 217 216 210 222 220 217 214 210 208 199 210 199 207 202 201 200 201 207 204 200 196 203 208 207 204 207 212 185 198 189 191 195 197 195 197 191 194 190 189 186 185 183 182 189 196 192 190 179 190 194 194 179 185 188 181 184 181 183 184 169 176 180 173 177 177 170 177 171 168 168 168 157
273 279 276 282 282 279 273 267 264 258 250 238 224 216 220 215 216 215 217 219 213 212 206 207 202 199 200 204 205 203 201 193 200 200 206 208 209 208 210 193 198 201 183 197 197 196 196 192 192 196 193 191 191 191 185 184 193 196 196 187 186 190 196 192 186 192 189 190 181 180 183 179 186 180 172 184 176 173 178 171 188 180 177 179 178
282 279 279 274 272 271 272 259 254 241 245 237 227 218 220 217 212 214 211 224 213 217 210 209 207 204 208 208 206 201 193 199 201 205 209 211 213 214 193 197 203 193 193 195 195 195 192 190 195 197 193 196 197 196 189 190 197 195 195 194 191 190 194 191 194 198 189 180 182 188 185 176 176 177 187 185 175 182 179 184 185 184 180 181 180
270 268 269 269 274 279 276 261 247 243 241 238 232 226 222 220 214 207 216 223 211 211 201 198 204 214 215 213 211 204 199 203 206 208 212 214 212 208 188 202 198 186 194 199 195 193 188 191 198 199 199 202 199 198 194 198 200 197 197 197 192 196 199 200 199 194 186 186 188 182 188 178 176 181 183 180 186 177 184 185 180 189 180 179 173
293 295 293 298 296 292 289 285 275 267 251 242 239 231 224 223 211 212 220 215 209 201 200 202 201 207 207 209 213 204 207 207 211 209 215 209 208 202 191 197 188 197 200 194 201 190 194 194 201 204 204 206 205 198 201 206 209 206 205 202 200 201 204 205 204 198 191 190 189 194 179 176 177 182 183 188 182 185 179 175 181 174 176 165 156
278 284 291 288 289 296 296 292 294 283 272 267 255 246 240 233 224 216 219 209 212 195 203 202 204 206 208 206 207 203 211 212 214 215 213 207 204 199 195 199 193 203 204 201 196 192 197 203 208 211 208 210 203 200 205 207 206 204 206 207 205 207 209 209 206 202 197 196 196 194 182 181 182 186 189 183 180 184 173 177 172 171 166 154 155
269 272 280 294 292 283 283 286 279 282 278 269 264 259 251 250 252 235 228 218 210 200 207 209 212 214 216 213 203 205 203 209 210 213 210 206 204 201 198 205 198 206 203 197 197 196 203 204 211 207 207 205 201 201 205 207 205 203 204 204 206 207 209 210 210 205 199 201 202 198 188 188 193 195 185 185 179 179 181 183 177 169 164 162 160
270 272 272 271 275 281 282 279 282 276 274 263 246 240 238 232 239 240 245 236 218 205 210 215 217 228 231 227 221 218 216 216 213 209 207 205 201 200 204 202 188 202 202 197 195 198 203 201 208 206 207 200 199 203 207 206 205 202 201 208 206 206 208 210 210 204 202 204 205 203 198 198 201 199 190 183 177 180 175 178 178 164 166 162 163
277 270 269 269 270 272 276 279 278 279 270 264 257 248 239 243 234 219 202 214 205 204 206 205 208 218 219 214 212 209 210 210 204 203 203 204 202 202 198 197 197 202 201 202 198 194 199 207 207 205 202 197 201 206 204 202 201 202 202 206 205 206 205 207 205 204 204 205 206 206 204 202 203 200 192 182 189 180 171 176 180 171 170 168 160
279 276 273 269 268 270 271 274 277 273 272 269 262 254 241 235 232 216 217 211 179 203 200 204 210 216 213 208 206 203 202 202 202 204 209 203 203 201 198 201 205 205 204 201 197 199 204 207 203 205 203 200 208 208 207 198 196 199 199 201 199 203 201 201 201 201 205 205 206 203 202 196 195 191 187 186 187 189 194 191 174 176 174 172 171
275 275 274 272 272 271 273 271 267 268 266 264 256 251 245 236 230 219 219 207 189 203 207 208 218 217 212 205 201 209 201 208 210 210 209 204 206 199 204 211 211 207 208 202 195 206 212 208 209 206 207 211 212 212 204 203 204 200 193 198 199 202 200 201 202 200 205 202 203 199 197 194 190 189 188 187 188 189 190 190 187 191 187 175 171
274 276 277 278 275 274 270 265 265 262 260 259 259 251 239 239 227 225 214 179 190 205 211 218 225 218 209 205 209 204 210 220 209 216 207 205 198 201 211 213 210 210 207 187 205 213 211 210 212 214 215 216 219 208 205 208 206 203 195 199 202 203 200 204 203 204 206 199 196 191 193 192 193 192 185 185 188 189 188 187 185 191 197 203 207
269 273 276 273 270 269 268 267 266 259 254 248 241 249 240 236 231 223 165 182 199 206 214 224 223 211 211 203 198 202 212 213 210 203 198 191 200 208 214 210 212 206 184 201 215 210 216 212 211 216 221 218 224 203 209 209 207 206 202 195 209 206 204 207 204 204 203 197 190 190 192 194 193 186 182 181 177 181 185 183 183 188 194 197 199
263 260 263 269 273 272 269 262 265 269 259 264 231 230 242 229 216 178 183 196 198 212 212 221 209 209 204 197 198 202 212 213 199 195 192 199 203 214 215 211 207 189 201 212 214 215 215 214 214 216 222 221 223 209 209 208 207 205 204 199 213 208 211 210 206 203 203 199 194 193 191 192 187 184 183 176 172 173 168 169 172 175 178 190 192
265 268 261 255 258 267 275 281 274 265 272 266 263 236 252 241 191 191 197 192 202 208 214 215 212 209 199 200 199 203 211 205 197 194 196 207 212 219 214 209 201 202 204 212 211 214 219 216 216 215 222 225 224 208 207 207 207 206 207 201 213 213 215 216 212 209 207 202 198 198 198 182 181 184 184 176 173 171 158 156 142 145 144 154 129
251 247 261 260 252 250 262 274 280 279 277 257 262 244 224 243 206 207 198 203 202 210 220 211 215 210 203 200 196 205 209 202 196 195 204 216 218 217 217 204 202 212 215 215 224 217 221 215 215 215 219 230 225 202 206 206 208 208 205 208 213 214 217 216 215 212 208 205 202 198 182 169 164 162 176 174 166 137 142 147 144 144 144 128 106
257 239 251 261 271 271 267 273 287 286 287 290 272 246 233 234 212 221 203 213 211 226 230 220 222 215 208 200 202 205 208 203 196 199 214 221 219 220 222 189 207 212 214 217 221 219 214 213 216 214 220 230 228 204 202 204 205 206 204 211 212 215 218 217 216 211 208 201 197 190 176 174 169 160 176 177 173 157 142 150 148 145 135 122 130
261 275 267 281 291 282 271 258 286 295 292 279 264 236 222 227 232 212 203 217 217 235 255 278 274 281 211 199 205 207 211 206 199 211 218 221 216 218 212 188 207 210 218 223 218 223 218 215 216 219 217 226 227 208 204 203 205 205 203 209 212 214 220 215 217 204 202 198 189 175 162 152 152 165 179 179 176 160 145 146 145 145 146 150 147
257 275 299 301 299 298 295 302 289 299 308 296 260 192 204 233 224 211 216 233 245 296 333 280 252 201 195 196 198 203 211 211 213 219 216 219 213 213 201 190 211 214 227 211 208 219 226 219 219 223 217 220 228 213 203 206 204 205 205 212 210 215 214 212 197 196 174 148 157 179 170 167 159 171 181 183 180 168 153 160 160 150 159 159 165
307 301 251 280 312 323 312 331 340 321 325 332 303 225 234 234 207 171 201 244 290 284 240 217 207 202 197 196 196 201 215 218 225 228 218 220 207 198 199 196 209 206 219 212 212 216 225 228 214 220 222 220 224 220 205 207 206 208 206 206 210 203 214 202 193 182 161 164 153 171 183 183 177 181 185 186 187 180 178 168 153 165 157 165 155
311 310 353 342 317 309 305 323 339 345 6 4 5 330 298 315 360 55 3 325 285 263 267 270 235 218 208 208 203 204 221 229 226 228 216 211 197 205 196 197 207 204 210 221 217 219 226 234 215 216 217 220 217 218 209 205 210 210 210 208 211 211 209 198 196 193 189 167 169 169 162 186 184 187 190 192 195 194 185 176 177 175 165 158 148
280 7 35 5 319 332 360 17 11 10 9 11 14 18 11 52 80 44 353 322 337 340 323 308 296 247 244 227 224 240 236 239 240 220 226 226 214 196 203 199 198 200 214 223 222 220 228 234 221 209 213 217 210 209 210 209 211 214 215 214 213 216 204 196 201 172 152 173 161 165 164 186 189 193 196 200 203 199 193 173 185 183 171 165 156
344 1 10 357 345 34 43 31 15 18 15 11 35 51 53 55 50 2 336 336 340 359 10 29 28 20 8 355 340 303 274 264 243 223 217 240 210 195 207 187 197 208 215 227 224 224 227 240 234 223 217 213 208 212 210 211 217 217 220 222 223 221 200 195 199 203 198 165 157 151 168 185 195 201 202 203 203 199 194 179 182 182 179 171 154
43 98 331 295 118 82 67 41 29 25 22 18 30 66 62 58 21 346 339 345 355 357 24 39 33 25 13 12 356 341 325 318 266 230 218 233 229 211 202 202 201 203 217 228 236 219 232 240 238 238 226 215 218 205 216 214 215 223 225 226 230 217 198 197 200 206 201 191 164 165 184 190 195 201 204 205 206 204 188 181 184 187 183 172 150
61 31 354 11 77 92 82 55 34 29 28 23 20 49 53 39 352 347 346 345 342 357 34 31 22 15 13 351 356 6 4 2 354 359 249 263 257 200 208 236 186 214 215 229 241 210 224 238 235 236 213 194 195 199 208 220 217 224 229 231 234 229 209 196 197 204 189 185 186 187 189 193 199 203 204 206 208 209 195 176 187 183 180 154 154
55 31 14 32 70 76 76 70 47 32 30 32 26 37 44 6 342 346 341 340 346 22 37 26 17 20 7 1 26 8 13 13 16 33 155 229 214 211 206 217 178 210 220 224 240 218 226 231 239 232 214 192 186 188 206 216 226 231 237 240 239 240 226 211 196 198 192 182 186 189 193 197 202 204 204 204 206 206 203 179 185 181 170 160 165
41 15 10 40 67 71 64 61 54 28 28 21 33 32 28 356 352 348 345 345 2 33 40 29 23 15 14 19 32 17 7 14 26 33 45 47 51 154 188 207 199 210 224 228 235 228 231 235 234 239 205 175 179 188 193 195 212 223 227 236 240 253 224 205 194 180 174 177 189 191 197 199 198 200 199 199 202 204 191 175 181 179 171 167 173
49 24 36 63 63 68 63 61 53 26 25 25 25 24 12 2 356 353 348 353 19 30 38 28 19 19 21 18 25 20 28 27 29 40 33 18 18 28 46 32 7 317 251 254 242 237 244 235 245 225 185 171 195 195 193 197 214 219 229 232 238 244 207 188 171 173 171 182 186 190 192 196 194 200 203 197 195 178 168 175 180 179 165 164 168
47 38 42 56 63 65 60 61 52 30 27 31 26 18 4 6 358 350 350 3 20 27 40 35 23 24 22 15 24 25 24 28 35 50 50 49 41 18 35 33 37 61 24 24 312 316 311 254 219 200 199 215 211 211 215 213 215 223 220 219 224 209 189 187 178 172 159 165 160 180 181 186 189 191 198 198 184 162 173 177 169 148 150 153 158
63 60 61 64 61 65 62 58 49 35 33 29 23 17 3 359 0 351 354 7 5 23 36 32 26 27 18 18 20 23 22 28 31 32 41 24 49 66 51 73 357 15 35 7 15 81 305 109 193 235 203 205 228 224 205 216 220 225 232 231 230 223 207 186 182 182 170 172 182 181 187 186 188 188 194 198 185 170 166 146 153 156 154 160 165
57 63 55 60 57 56 60 55 43 35 36 31 25 17 5 359 5 356 0 1 6 31 37 31 25 21 18 16 22 24 18 32 26 31 24 30 345 356 46 49 23 18 12 8 350 343 317 231 198 222 270 243 223 234 218 221 229 231 232 235 238 233 217 198 187 178 178 178 183 181 187 188 190 192 193 198 181 176 171 162 159 162 170 166 167